Bennett, CO

3:58 PM MST on January 21, 2017 (GMT -0700)
Denver

Weather History for KFTG - March, 2013

Change the Weather History Date:

Sunday, March 3, 2013

  Actual Average (KDEN) Record (KDEN)
Temperature  
Mean Temperature 47 °F -  
Max Temperature 57 °F 45 °F 76 °F (1921)
Min Temperature 37 °F 21 °F -8 °F (1960)
Degree Days  
Heating Degree Days 18    
Moisture  
Dew Point 28 °F    
Average Humidity 53    
Maximum Humidity 70    
Minimum Humidity 32    
Precipitation  
Precipitation 0.00 in - - ()
Sea Level Pressure  
Sea Level Pressure 29.81 in    
Wind  
Wind Speed 10 mph (SW)    
Max Wind Speed 17 mph    
Max Gust Speed 23 mph    
Visibility 10 miles    
Events      
Averages and records for this station are not official NWS values.
T = Trace of Precipitation, MM = Missing Value Source: NWS Daily Summary

Daily Weather History Graph

Daily Weather History Graph

Search for Another Location

Airport or City:

Trip Planner

Search our weather history database for the weather conditions in past years. The results will help you decide how hot, cold, wet, or windy it might be!

Date:

Astronomy

Mar. 03, 2013 Rise Set
Actual Time 6:27 AM MST 5:52 PM MST
Civil Twilight 6:00 AM MST 6:19 PM MST
Nautical Twilight 5:29 AM MST 6:51 PM MST
Astronomical Twilight 4:58 AM MST 7:22 PM MST
Moon No Moon Rise 9:45 AM MST (3/3)
Length of Visible Light 12h 18m
Length of Day
11h 24m
Waning Gibbous, 63% of the Moon is Illuminated
Mar 3
Waning Gibbous
Mar 4
Last Quarter
Mar 11
New
Mar 19
First Quarter
Mar 27
Full

Hourly Weather History & Observations

Time (MST) Temp. Windchill Dew Point Humidity Pressure Visibility Wind Dir Wind Speed Gust Speed Precip Events Conditions
12:52 AM 41.0 °F 34.7 °F 30.2 °F 65% 30.01 in 10.0 mi South 10.4 mph - N/A   Clear
1:06 AM 39.2 °F 32.0 °F 30.2 °F 70% 30.01 in 10.0 mi South 11.5 mph - N/A   Clear
1:36 AM 41.0 °F 34.7 °F 30.2 °F 65% 29.99 in 10.0 mi South 10.4 mph - N/A   Clear
1:56 AM 41.0 °F 34.7 °F 30.2 °F 65% 29.97 in 10.0 mi South 10.4 mph - N/A   Clear
2:16 AM 42.8 °F 34.8 °F 28.4 °F 57% 29.95 in 10.0 mi SSW 17.3 mph - N/A   Clear
2:32 AM 42.8 °F 37.0 °F 30.2 °F 61% 29.95 in 10.0 mi South 10.4 mph - N/A   Clear
2:47 AM 39.2 °F 35.0 °F 30.2 °F 70% 29.93 in 10.0 mi South 5.8 mph - N/A   Clear
3:11 AM 42.8 °F 36.2 °F 28.4 °F 57% 29.92 in 10.0 mi SSW 12.7 mph - N/A   Clear
3:34 AM 42.8 °F 35.4 °F 28.4 °F 57% 29.91 in 10.0 mi SSW 15.0 mph - N/A   Clear
3:56 AM 46.4 °F 40.4 °F 26.6 °F 46% 29.90 in 10.0 mi SW 13.8 mph - N/A   Clear
4:16 AM 44.6 °F 39.2 °F 26.6 °F 49% 29.89 in 10.0 mi SW 10.4 mph - N/A   Clear
4:29 AM 46.4 °F 40.1 °F 26.6 °F 46% 29.89 in 10.0 mi SSW 15.0 mph 23.0 mph N/A   Clear
4:55 AM 44.6 °F 38.4 °F 26.6 °F 49% 29.88 in 10.0 mi SW 12.7 mph - N/A   Clear
5:12 AM 44.6 °F 38.8 °F 26.6 °F 49% 29.87 in 10.0 mi SSW 11.5 mph - N/A   Clear
5:36 AM 42.8 °F 38.0 °F 26.6 °F 53% 29.86 in 10.0 mi SSW 8.1 mph - N/A   Clear
5:54 AM 42.8 °F 36.2 °F 26.6 °F 53% 29.87 in 10.0 mi SW 12.7 mph - N/A   Clear
6:08 AM 46.4 °F 40.7 °F 23.0 °F 40% 29.86 in 10.0 mi SSW 12.7 mph - N/A   Clear
6:30 AM 44.6 °F 38.8 °F 24.8 °F 46% 29.85 in 10.0 mi SSW 11.5 mph - N/A   Clear
6:46 AM 42.8 °F 38.0 °F 26.6 °F 53% 29.85 in 10.0 mi SW 8.1 mph - N/A   Clear
6:47 AM 44.6 °F 39.7 °F 24.8 °F 46% 29.85 in 50.0 mi SSW 9.2 mph - N/A   Mostly Cloudy
7:47 AM 50.0 °F - 21.2 °F 32% 29.85 in 50.0 mi SW 10.4 mph - N/A   Mostly Cloudy
8:50 AM 50.0 °F - 21.2 °F 32% 29.85 in 50.0 mi SW 6.9 mph - N/A   Mostly Cloudy
9:50 AM 51.8 °F - 24.8 °F 35% 29.83 in 50.0 mi Calm Calm - N/A   Mostly Cloudy
10:50 AM 50.0 °F - 28.4 °F 43% 29.80 in 50.0 mi Calm Calm - N/A   Mostly Cloudy
2:48 PM 57.2 °F - 32.0 °F 38% 29.68 in 50.0 mi South 5.8 mph - N/A   Mostly Cloudy
3:52 PM 53.6 °F - 33.8 °F 47% 29.68 in 50.0 mi SSE 3.5 mph - N/A   Mostly Cloudy
4:48 PM 53.6 °F - 26.6 °F 35% 29.69 in 50.0 mi SW 5.8 mph - N/A   Mostly Cloudy
5:48 PM 53.6 °F - 26.6 °F 35% 29.69 in 50.0 mi Calm Calm - N/A   Mostly Cloudy
6:50 PM 46.4 °F 41.5 °F 28.4 °F 50% 29.71 in 20.0 mi West 10.4 mph - N/A   Scattered Clouds
8:16 PM 44.6 °F 40.2 °F 30.2 °F 57% 29.71 in 10.0 mi West 8.1 mph - N/A   Clear
8:36 PM 42.8 °F 38.0 °F 30.2 °F 61% 29.71 in 10.0 mi WNW 8.1 mph - N/A   Clear
8:54 PM 42.8 °F 38.0 °F 30.2 °F 61% 29.71 in 10.0 mi WSW 8.1 mph - N/A   Clear
9:11 PM 42.8 °F 39.3 °F 28.4 °F 57% 29.70 in 10.0 mi West 5.8 mph - N/A   Clear
9:36 PM 42.8 °F 41.1 °F 28.4 °F 57% 29.70 in 10.0 mi West 3.5 mph - N/A   Clear
9:56 PM 42.8 °F 38.6 °F 28.4 °F 57% 29.70 in 10.0 mi SSW 6.9 mph - N/A   Clear
10:14 PM 37.4 °F 32.8 °F 28.4 °F 70% 29.70 in 10.0 mi South 5.8 mph - N/A   Clear
10:35 PM 42.8 °F 37.0 °F 28.4 °F 57% 29.69 in 10.0 mi SW 10.4 mph - N/A   Clear
10:56 PM 42.8 °F 39.3 °F 28.4 °F 57% 29.69 in 10.0 mi WSW 5.8 mph - N/A   Clear
11:16 PM 41.0 °F 36.4 °F 28.4 °F 61% 29.70 in 10.0 mi West 6.9 mph - N/A   Clear
11:36 PM 42.8 °F 40.1 °F 28.4 °F 57% 29.70 in 10.0 mi West 4.6 mph - N/A   Clear
11:50 PM 41.0 °F 38.0 °F 28.4 °F 61% 29.70 in 10.0 mi SSW 4.6 mph - N/A   Clear